User: anonymous   Login
Location: Unspecified
(0.0000°N, 0.0000°E)
Time: 21:55:56
(UTC+00:00)
Language:

TBA - TO BE ASSIGNED - Orbit

View from above orbital plane
View from above orbital plane
View from above satellite
View from above satellite

Ground track
Ground track

The orbit is defined by the following mean orbital elements,

1 68254U          26145.13933475 +.00000000 +00000-0 +11276-2 0 00000
2 68254  53.1583 297.7261 0001291  92.1817 267.9340 15.49362342    07
Epoch (UTC): 25 May 2026 03:20:38
Eccentricity: 0.0001291
inclination: 53.1583°
perigee height: 418 km
apogee height: 419 km
right ascension of ascending node: 297.7261°
argument of perigee: 92.1817°
revolutions per day: 15.49362342
mean anomaly at epoch: 267.9340°

The dashed part of the orbit path shows where the satellite is in the earth's shadow,  

DLR